Location: Mentone
(34.5413°N, 85.5351°W)
Time: 13:32:35
(UTC-05:00)

ATLAS 5 CENTAUR R/B - Visible Passes

Search period start: 30 April 2017 00:00
Search period end: 10 May 2017 00:00
Orbit: 636 x 1024 km, 63.4° (Epoch: 23 April)

Date Brightness Start Highest point End Pass type
(mag) Time Alt. Az. Time Alt. Az. Time Alt. Az.
30 Apr 3.2 19:47:52 10° NNW 19:53:30 38° NE 19:59:33 10° ESE visible
30 Apr 3.6 21:32:36 10° NW 21:38:13 36° WSW 21:41:36 22° SSW visible
01 May 3.6 21:13:34 10° NW 21:19:17 38° WSW 21:23:54 16° S visible
02 May 3.5 20:54:33 10° NW 21:00:20 41° WSW 21:06:17 11° S visible
03 May 3.5 20:35:33 10° NW 20:41:23 43° WSW 20:47:35 10° S visible
04 May 3.4 20:16:31 10° NW 20:22:26 46° WSW 20:28:43 10° S visible
05 May 3.4 19:57:31 10° NW 20:03:29 49° WSW 20:09:49 10° S visible
